| time (UTC) | temp F | wind direction | speed MPH | gust MPH | rain 1hr in | rain 24hr in | rain mn in | humidity % | barometer mb |
| 20260505090057 | 61 | 225 | 7.0 | 14.0 | 0.00 | 0.02 | 0.02 | 53 | 1005.6 |
| 20260505084551 | 61 | 224 | 7.0 | 14.0 | 0.00 | 0.02 | 0.02 | 54 | 1005.4 |
| 20260505083052 | 61 | 187 | 5.0 | 11.0 | 0.00 | 0.02 | 0.02 | 55 | 1005.6 |
| 20260505081558 | 61 | 231 | 4.0 | 14.0 | 0.00 | 0.02 | 0.02 | 55 | 1005.5 |
| 20260505080049 | 61 | 227 | 6.0 | 16.0 | 0.01 | 0.02 | 0.02 | 55 | 1005.1 |
| 20260505074604 | 61 | 204 | 5.0 | 16.0 | 0.01 | 0.02 | 0.02 | 55 | 1005.2 |
| 20260505073040 | 61 | 232 | 8.0 | 14.0 | 0.02 | 0.02 | 0.02 | 55 | 1005.2 |
| 20260505071539 | 61 | 163 | 7.0 | 18.0 | 0.02 | 0.02 | 0.02 | 55 | 1005.1 |
| 20260505070038 | 61 | 196 | 9.0 | 16.0 | 0.01 | 0.01 | 0.01 | 54 | 1005.5 |
| 20260505064536 | 63 | 208 | 8.0 | 22.0 | 0.01 | 0.01 | 0.01 | 50 | 1005.3 |
| 20260505063039 | 65 | 261 | 10.0 | 16.0 | 0.00 | 0.00 | 0.00 | 45 | 1005.7 |
| 20260505061533 | 64 | 199 | 6.0 | 12.0 | 0.00 | 0.00 | 0.00 | 45 | 1005.3 |
| 20260505060027 | 64 | 231 | 4.0 | 13.0 | 0.00 | 0.00 | 0.00 | 45 | 1005.6 |
| 20260505054528 | 64 | 196 | 7.0 | 14.0 | 0.00 | 0.00 | 0.00 | 46 | 1005.6 |
| 20260505053020 | 64 | 219 | 6.0 | 14.0 | 0.00 | 0.00 | 0.00 | 46 | 1005.8 |
| 20260505051518 | 63 | 242 | 6.0 | 12.0 | 0.00 | 0.00 | 0.00 | 46 | 1005.8 |
| 20260505041511 | 63 | 169 | 5.0 | 11.0 | 0.00 | 0.00 | 0.00 | 46 | 1006.1 |
| 20260505040013 | 63 | 192 | 5.0 | 11.0 | 0.00 | 0.00 | 0.00 | 46 | 1006.0 |
| 20260505034507 | 63 | 183 | 5.0 | 10.0 | 0.00 | 0.00 | 0.00 | 46 | 1006.0 |
| 20260505033008 | 64 | 185 | 4.0 | 9.0 | 0.00 | 0.00 | 0.00 | 46 | 1006.0 |
| 20260505031505 | 64 | 195 | 3.0 | 9.0 | 0.00 | 0.00 | 0.00 | 45 | 1006.0 |
| 20260505030005 | 64 | 207 | 5.0 | 14.0 | 0.00 | 0.00 | 0.00 | 45 | 1006.2 |
| 20260505024510 | 65 | 199 | 4.0 | 11.0 | 0.00 | 0.00 | 0.00 | 45 | 1006.1 |
| 20260505023003 | 65 | 211 | 5.0 | 9.0 | 0.00 | 0.00 | 0.00 | 45 | 1006.2 |
| 20260505021513 | 65 | 213 | 6.0 | 12.0 | 0.00 | 0.00 | 0.00 | 44 | 1006.3 |
| 20260505020002 | 65 | 261 | 6.0 | 15.0 | 0.00 | 0.00 | 0.00 | 44 | 1006.5 |
| 20260505014501 | 66 | 209 | 5.0 | 18.0 | 0.00 | 0.00 | 0.00 | 43 | 1006.3 |
| 20260505013103 | 66 | 197 | 6.0 | 15.0 | 0.00 | 0.00 | 0.00 | 43 | 1006.2 |
| 20260505011600 | 66 | 236 | 6.0 | 13.0 | 0.00 | 0.00 | 0.00 | 43 | 1006.1 |
| 20260505010059 | 66 | 209 | 4.0 | 14.0 | 0.00 | 0.00 | 0.00 | 42 | 1005.9 |
| 20260505004604 | 67 | 200 | 4.0 | 13.0 | 0.00 | 0.00 | 0.00 | 42 | 1005.6 |
| 20260505003057 | 67 | 200 | 8.0 | 17.0 | 0.00 | 0.00 | 0.00 | 41 | 1005.7 |
| 20260505001557 | 67 | 229 | 6.0 | 16.0 | 0.00 | 0.00 | 0.00 | 41 | 1005.4 |
| 20260505000058 | 68 | 240 | 9.0 | 16.0 | 0.00 | 0.00 | 0.00 | 40 | 1005.4 |
| 20260504234556 | 69 | 202 | 8.0 | 17.0 | 0.00 | 0.00 | 0.00 | 40 | 1005.2 |
| 20260504233100 | 69 | 217 | 6.0 | 17.0 | 0.00 | 0.00 | 0.00 | 39 | 1005.6 |
| 20260504231553 | 69 | 232 | 8.0 | 16.0 | 0.00 | 0.00 | 0.00 | 40 | 1005.7 |
| 20260504230052 | 69 | 238 | 5.0 | 12.0 | 0.00 | 0.00 | 0.00 | 40 | 1005.7 |
| 20260504224551 | 69 | 188 | 7.0 | 18.0 | 0.00 | 0.00 | 0.00 | 38 | 1005.8 |
| 20260504223055 | 70 | 227 | 9.0 | 20.0 | 0.00 | 0.00 | 0.00 | 36 | 1005.7 |
| 20260504221600 | 70 | 238 | 13.0 | 24.0 | 0.00 | 0.00 | 0.00 | 36 | 1005.6 |
| 20260504220108 | 70 | 237 | 6.0 | 16.0 | 0.00 | 0.00 | 0.00 | 36 | 1005.6 |
| 20260504214548 | 72 | 230 | 8.0 | 19.0 | 0.00 | 0.00 | 0.00 | 34 | 1005.6 |
| 20260504213057 | 72 | 269 | 11.0 | 18.0 | 0.00 | 0.00 | 0.00 | 34 | 1005.5 |
| 20260504211545 | 71 | 240 | 9.0 | 21.0 | 0.00 | 0.00 | 0.00 | 34 | 1005.7 |
| 20260504210046 | 71 | 265 | 10.0 | 22.0 | 0.00 | 0.00 | 0.00 | 33 | 1005.7 |
| 20260504204559 | 70 | 219 | 7.0 | 16.0 | 0.00 | 0.00 | 0.00 | 34 | 1005.6 |
| 20260504203043 | 70 | 200 | 8.0 | 19.0 | 0.00 | 0.00 | 0.00 | 35 | 1005.6 |
| 20260504201543 | 71 | 235 | 7.0 | 22.0 | 0.00 | 0.00 | 0.00 | 35 | 1006.0 |
| 20260504200044 | 70 | 213 | 6.0 | 21.0 | 0.00 | 0.00 | 0.00 | 34 | 1005.8 |
| 20260504194543 | 70 | 215 | 8.0 | 19.0 | 0.00 | 0.00 | 0.00 | 35 | 1006.3 |
| 20260504193037 | 71 | 219 | 11.0 | 20.0 | 0.00 | 0.00 | 0.00 | 34 | 1006.2 |
| 20260504191540 | 70 | 196 | 11.0 | 23.0 | 0.00 | 0.00 | 0.00 | 34 | 1006.3 |
| 20260504190037 | 70 | 136 | 5.0 | 14.0 | 0.00 | 0.00 | 0.00 | 35 | 1006.4 |
| 20260504184535 | 70 | 191 | 7.0 | 16.0 | 0.00 | 0.00 | 0.00 | 34 | 1006.7 |
| 20260504183032 | 69 | 173 | 8.0 | 26.0 | 0.00 | 0.00 | 0.00 | 34 | 1007.0 |
| 20260504181525 | 69 | 205 | 11.0 | 22.0 | 0.00 | 0.00 | 0.00 | 35 | 1007.3 |
| 20260504180025 | 69 | 237 | 10.0 | 23.0 | 0.00 | 0.00 | 0.00 | 34 | 1007.5 |
| 20260504174523 | 68 | 178 | 5.0 | 19.0 | 0.00 | 0.00 | 0.00 | 35 | 1007.6 |
| 20260504173020 | 68 | 170 | 7.0 | 15.0 | 0.00 | 0.00 | 0.00 | 34 | 1007.7 |
| 20260504171517 | 68 | 264 | 6.0 | 16.0 | 0.00 | 0.00 | 0.00 | 35 | 1007.9 |